Regional Weather Roundup
Issued by NWS

Home | Current Version | Previous Version | Graphics & Text | Print | Product List | Glossary Off
Versions: 1 2 3 4 5 6 7 8 9 10 11 12 13 14 15 16 17 18 19 20 21 22 23 24 25 26 27 28 29 30 31 32 33 34 35 36 37 38 39 40 41 42 43 44 45 46 47 48 49 50

000
ASUS43 KTOP 261059
RWRKS

WEATHER ROUNDUP FOR KANSAS
NATIONAL WEATHER SERVICE GOODLAND KS
600 AM CDT TUE SEP 26 2017

NOTE:  "FAIR" INDICATES FEW OR NO CLOUDS BELOW 12,000 FEET WITH NO
SIGNIFICANT WEATHER AND/OR OBSTRUCTIONS TO VISIBILITY.

KSZ001>006-013>018-027>032-041>047-261200-
NORTHWEST KANSAS

CITY           SKY/WX    TMP DP  RH WIND       PRES   REMARKS
GOODLAND       CLOUDY    46  45  96 N6        30.16R
HAYS           CLOUDY    51  48  89 N12       30.10S
HILL CITY      CLOUDY    50  48  93 N9        30.13R
RUSSELL        CLOUDY    51  49  92 N15       30.08R
$$

KSZ061>065-074>080-084>089-261200-
SOUTHWEST KANSAS

CITY           SKY/WX    TMP DP  RH WIND       PRES   REMARKS
DODGE CITY     CLOUDY    51  50  96 N15       30.10R
ELKHART          N/A     49  49 100 N12         N/A
GARDEN CITY    CLOUDY    49  47  93 N13       30.12R
GREAT BEND     CLOUDY    52  50  93 N15       30.09R
LIBERAL        CLOUDY    52  50  93 N13G22    30.10R
$$

KSZ066>073-081>083-090>101-261200-
SOUTHEAST KANSAS

CITY           SKY/WX    TMP DP  RH WIND       PRES   REMARKS
CHANUTE        CLOUDY    67  65  93 N5        29.99R
COFFEYVILLE    LGT RAIN  67  66  97 E5        29.96R
HUTCHINSON     CLOUDY    56  56 100 NW9       30.04S FOG
NEWTON         CLOUDY    57  57 100 NW12      30.04R FOG
PARSONS        RAIN      66  65  96 N7        29.98R FOG
WICHITA INTL   CLOUDY    59  59 100 N12       30.02R
WICHITA JABRA  CLOUDY    59  59 100 N13       30.02R
WICHITA MCCONL CLOUDY    61  59  94 N8        30.02R
WINFIELD       CLOUDY    64  64 100 N15       30.02R
$$

KSZ007>012-019>026-033>040-048>060-102>105-261200-
NORTHEAST KANSAS

CITY           SKY/WX    TMP DP  RH WIND       PRES   REMARKS
CONCORDIA      CLOUDY    52  52 100 N10       30.07R
EMPORIA        CLOUDY    65  64  97 CALM      30.00S
LAWRENCE       LGT RAIN  67  67 100 CALM      29.98R
MANHATTAN      CLOUDY    59  58  96 VRB3      30.03R
OLATHE IND     LGT RAIN  65  64  97 CALM      29.99S FOG
OLATHE EXE     LGT RAIN  65  65 100 CALM      29.99R
SALINA         CLOUDY    57  54  89 NW15      30.07R
TOPEKA BILLARD CLOUDY    66  66 100 W3        29.99R
TOPEKA FORBES  CLOUDY    67  66  97 W6        30.00R
$$



USA.gov is the U.S. government's official web portal to all federal, state and local government web resources and services.